User: anonymous   Login
Location: Unspecified
(0.0000°N, 0.0000°E)
Time: 06:11:49
(UTC+00:00)
Language:

TIGRISAT - Orbit

View from above orbital plane
View from above orbital plane
View from above satellite
View from above satellite

Ground track
Ground track

The orbit data is extracted from the following two-line orbital elements,

1 40043U 14033AK  18116.65178542  .00000149  00000-0  29609-4 0  9991
2 40043  97.8162 355.8311 0060355   6.3934 353.8031 14.74124309207014
Epoch (UTC): 26 April 2018 15:38:34
Eccentricity: 0.0060355
inclination: 97.8162°
perigee height: 605 km
apogee height: 690 km
right ascension of ascending node: 355.8311°
argument of perigee: 6.3934°
revolutions per day: 14.74124309
mean anomaly at epoch: 353.8031°
orbit number at epoch: 20701

The dashed part of the orbit path shows where the satellite is in the earth's shadow,  

DLR